Valley City, ND

1:05 PM CDT on March 29, 2017 (GMT -0500)
Valley City

Weather History for KBAC - May, 2013

Change the Weather History Date:

Thursday, May 23, 2013

  Actual Average (KJMS) Record (KJMS)
Temperature  
Mean Temperature 56 °F -  
Max Temperature 66 °F 69 °F 93 °F (1928)
Min Temperature 46 °F 46 °F 25 °F (1924)
Degree Days  
Heating Degree Days 9    
Growing Degree Days 6 (Base 50)    
Moisture  
Dew Point 38 °F    
Average Humidity 54    
Maximum Humidity 87    
Minimum Humidity 26    
Precipitation  
Precipitation 0.00 in - - ()
Sea Level Pressure  
Sea Level Pressure 30.25 in    
Wind  
Wind Speed 11 mph (East)    
Max Wind Speed 16 mph    
Max Gust Speed 22 mph    
Visibility 10 miles    
Events      
Averages and records for this station are not official NWS values.
T = Trace of Precipitation, MM = Missing Value Source: NWS Daily Summary

Daily Weather History Graph

Daily Weather History Graph

Search for Another Location

Airport or City:

Trip Planner

Search our weather history database for the weather conditions in past years. The results will help you decide how hot, cold, wet, or windy it might be!

Date:

Astronomy

May. 23, 2013 Rise Set
Actual Time 5:47 AM CDT 9:10 PM CDT
Civil Twilight 5:10 AM CDT 9:47 PM CDT
Nautical Twilight 4:21 AM CDT 10:37 PM CDT
Astronomical Twilight 3:19 AM CDT 11:40 PM CDT
Moon 7:40 PM CDT (5/23) 4:40 AM CDT (5/23)
Length of Visible Light 16h 37m
Length of Day
15h 22m
Waxing Gibbous, 97% of the Moon is Illuminated
May 23
Waxing Gibbous
May 24
Full
May 31
Last Quarter
Jun 8
New
Jun 16
First Quarter

Hourly Weather History & Observations

Time (CDT) Temp. Windchill Dew Point Humidity Pressure Visibility Wind Dir Wind Speed Gust Speed Precip Events Conditions
12:15 AM 53.6 °F - 44.6 °F 72% 30.12 in 10.0 mi NE 10.4 mph - N/A   Partly Cloudy
12:35 AM 55.4 °F - 46.4 °F 72% 30.13 in 10.0 mi NE 11.5 mph 18.4 mph N/A   Mostly Cloudy
12:55 AM 53.6 °F - 46.4 °F 77% 30.14 in 10.0 mi NE 10.4 mph - N/A   Mostly Cloudy
1:15 AM 53.6 °F - 46.4 °F 77% 30.15 in 10.0 mi NE 11.5 mph 17.3 mph N/A   Overcast
1:35 AM 53.6 °F - 46.4 °F 77% 30.16 in 10.0 mi NE 10.4 mph - N/A   Scattered Clouds
1:55 AM 51.8 °F - 46.4 °F 82% 30.17 in 10.0 mi NE 10.4 mph - N/A   Clear
2:15 AM 50.0 °F - 46.4 °F 87% 30.17 in 10.0 mi NE 11.5 mph - N/A   Clear
2:35 AM 50.0 °F - 46.4 °F 87% 30.18 in 10.0 mi NE 10.4 mph - N/A   Clear
2:55 AM 50.0 °F - 44.6 °F 82% 30.19 in 10.0 mi NE 10.4 mph - N/A   Clear
3:15 AM 48.2 °F - 44.6 °F 87% 30.19 in 10.0 mi NE 10.4 mph - N/A   Clear
3:35 AM 50.0 °F - 44.6 °F 82% 30.20 in 10.0 mi NE 10.4 mph - N/A   Clear
3:55 AM 48.2 °F - 42.8 °F 82% 30.20 in 10.0 mi NE 8.1 mph - N/A   Clear
4:15 AM 48.2 °F - 42.8 °F 82% 30.21 in 10.0 mi ENE 9.2 mph - N/A   Clear
4:35 AM 48.2 °F - 41.0 °F 76% 30.21 in 10.0 mi ENE 12.7 mph 18.4 mph N/A   Clear
4:55 AM 48.2 °F - 41.0 °F 76% 30.22 in 10.0 mi ENE 12.7 mph - N/A   Clear
5:15 AM 48.2 °F - 41.0 °F 76% 30.22 in 10.0 mi ENE 9.2 mph - N/A   Clear
5:35 AM 46.4 °F 41.1 °F 41.0 °F 81% 30.23 in 10.0 mi ENE 11.5 mph - N/A   Clear
5:55 AM 46.4 °F 41.9 °F 41.0 °F 81% 30.24 in 10.0 mi ENE 9.2 mph - N/A   Clear
6:15 AM 46.4 °F 41.5 °F 41.0 °F 81% 30.25 in 10.0 mi ENE 10.4 mph - N/A   Clear
6:35 AM 46.4 °F 41.1 °F 41.0 °F 81% 30.25 in 10.0 mi ENE 11.5 mph 16.1 mph N/A   Clear
6:55 AM 46.4 °F 41.5 °F 41.0 °F 81% 30.26 in 10.0 mi ENE 10.4 mph 17.3 mph N/A   Clear
7:15 AM 48.2 °F - 41.0 °F 76% 30.27 in 10.0 mi ENE 9.2 mph - N/A   Clear
7:35 AM 48.2 °F - 41.0 °F 76% 30.28 in 10.0 mi ENE 10.4 mph 17.3 mph N/A   Clear
7:55 AM 48.2 °F - 41.0 °F 76% 30.28 in 10.0 mi ENE 10.4 mph - N/A   Clear
8:15 AM 50.0 °F - 41.0 °F 71% 30.29 in 10.0 mi ENE 13.8 mph - N/A   Clear
8:35 AM 50.0 °F - 41.0 °F 71% 30.29 in 10.0 mi East 15.0 mph 20.7 mph N/A   Clear
8:55 AM 53.6 °F - 41.0 °F 62% 30.30 in 10.0 mi East 13.8 mph - N/A   Clear
9:15 AM 53.6 °F - 41.0 °F 62% 30.31 in 10.0 mi East 12.7 mph - N/A   Clear
9:35 AM 55.4 °F - 41.0 °F 58% 30.31 in 10.0 mi East 9.2 mph - N/A   Clear
9:55 AM 55.4 °F - 41.0 °F 58% 30.31 in 10.0 mi East 12.7 mph 16.1 mph N/A   Clear
10:15 AM 57.2 °F - 37.4 °F 48% 30.31 in 10.0 mi East 15.0 mph 20.7 mph N/A   Clear
10:35 AM 57.2 °F - 35.6 °F 44% 30.31 in 10.0 mi East 16.1 mph 21.9 mph N/A   Clear
10:55 AM 59.0 °F - 35.6 °F 42% 30.31 in 10.0 mi ENE 13.8 mph 17.3 mph N/A   Clear
11:15 AM 59.0 °F - 33.8 °F 39% 30.30 in 10.0 mi East 13.8 mph 19.6 mph N/A   Clear
11:35 AM 59.0 °F - 33.8 °F 39% 30.31 in 10.0 mi ESE 11.5 mph 21.9 mph N/A   Clear
11:55 AM 59.0 °F - 33.8 °F 39% 30.30 in 10.0 mi East 15.0 mph 19.6 mph N/A   Clear
12:15 PM 59.0 °F - 35.6 °F 42% 30.30 in 10.0 mi ENE 11.5 mph 19.6 mph N/A   Clear
12:35 PM 60.8 °F - 35.6 °F 39% 30.30 in 10.0 mi East 12.7 mph 19.6 mph N/A   Clear
12:55 PM 60.8 °F - 35.6 °F 39% 30.30 in 10.0 mi ESE 15.0 mph 18.4 mph N/A   Clear
1:15 PM 62.6 °F - 33.8 °F 34% 30.30 in 10.0 mi East 11.5 mph - N/A   Clear
1:35 PM 62.6 °F - 33.8 °F 34% 30.30 in 10.0 mi East 10.4 mph 17.3 mph N/A   Clear
1:55 PM 62.6 °F - 33.8 °F 34% 30.29 in 10.0 mi East 13.8 mph 20.7 mph N/A   Clear
2:15 PM 62.6 °F - 33.8 °F 34% 30.29 in 10.0 mi NE 13.8 mph - N/A   Clear
2:35 PM 62.6 °F - 33.8 °F 34% 30.29 in 10.0 mi ENE 12.7 mph 19.6 mph N/A   Clear
2:55 PM 64.4 °F - 32.0 °F 30% 30.29 in 10.0 mi ESE 11.5 mph 17.3 mph N/A   Clear
3:15 PM 64.4 °F - 33.8 °F 32% 30.28 in 10.0 mi ESE 12.7 mph 18.4 mph N/A   Clear
3:35 PM 64.4 °F - 32.0 °F 30% 30.28 in 10.0 mi East 11.5 mph 19.6 mph N/A   Clear
3:55 PM 64.4 °F - 32.0 °F 30% 30.27 in 10.0 mi East 15.0 mph 18.4 mph N/A   Clear
4:15 PM 64.4 °F - 32.0 °F 30% 30.27 in 10.0 mi East 8.1 mph 19.6 mph N/A   Clear
4:35 PM 64.4 °F - 32.0 °F 30% 30.26 in 10.0 mi East 10.4 mph 17.3 mph N/A   Clear
4:55 PM 66.2 °F - 32.0 °F 28% 30.25 in 10.0 mi East 12.7 mph 21.9 mph N/A   Clear
5:15 PM 66.2 °F - 32.0 °F 28% 30.25 in 10.0 mi ESE 9.2 mph - N/A   Clear
5:35 PM 66.2 °F - 30.2 °F 26% 30.25 in 10.0 mi East 10.4 mph 18.4 mph N/A   Clear
5:55 PM 66.2 °F - 30.2 °F 26% 30.24 in 10.0 mi East 9.2 mph 21.9 mph N/A   Clear
6:15 PM 66.2 °F - 32.0 °F 28% 30.24 in 10.0 mi East 11.5 mph - N/A   Clear
6:35 PM 66.2 °F - 32.0 °F 28% 30.24 in 10.0 mi SE 11.5 mph 17.3 mph N/A   Clear
6:55 PM 64.4 °F - 32.0 °F 30% 30.23 in 10.0 mi SE 11.5 mph 19.6 mph N/A   Clear
7:15 PM 64.4 °F - 33.8 °F 32% 30.23 in 10.0 mi ESE 10.4 mph 20.7 mph N/A   Clear
7:35 PM 64.4 °F - 32.0 °F 30% 30.23 in 10.0 mi SE 12.7 mph - N/A   Clear
7:55 PM 62.6 °F - 32.0 °F 32% 30.23 in 10.0 mi SSE 9.2 mph 17.3 mph N/A   Clear
8:15 PM 62.6 °F - 33.8 °F 34% 30.23 in 10.0 mi SE 11.5 mph - N/A   Clear
8:35 PM 60.8 °F - 35.6 °F 39% 30.23 in 10.0 mi SE 10.4 mph - N/A   Clear
8:55 PM 59.0 °F - 37.4 °F 45% 30.24 in 10.0 mi SSE 9.2 mph - N/A   Clear
9:15 PM 59.0 °F - 35.6 °F 42% 30.25 in 10.0 mi SE 8.1 mph - N/A   Clear
9:35 PM 57.2 °F - 37.4 °F 48% 30.25 in 10.0 mi SSE 8.1 mph - N/A   Clear
9:55 PM 55.4 °F - 37.4 °F 51% 30.26 in 10.0 mi SE 8.1 mph - N/A   Clear
10:15 PM 55.4 °F - 37.4 °F 51% 30.26 in 10.0 mi SE 8.1 mph - N/A   Partly Cloudy
10:35 PM 53.6 °F - 37.4 °F 54% 30.26 in 10.0 mi SE 8.1 mph - N/A   Partly Cloudy
11:15 PM 51.8 °F - 37.4 °F 58% 30.27 in 10.0 mi SSE 5.8 mph - N/A   Mostly Cloudy
11:35 PM 50.0 °F - 37.4 °F 62% 30.27 in 10.0 mi South 5.8 mph - N/A   Mostly Cloudy
11:55 PM 50.0 °F - 37.4 °F 62% 30.26 in 10.0 mi South 5.8 mph - N/A   Overcast